EGKBEGHH

Guest
Details From EGKB - Biggin Hill
To EGHH - Bournemouth
Flight Number -
Tags generated
Created
Modified
Stats Distance 78 nm / 145 km
Max Altitude 4,600 ft / 1,402 m
Waypoints 3
Social Downloads 2
Likes 0
Share VATSIM

Download

Looking for another format? Having issues loading an existing format? Contact us
Advertisement - Login to hide

Notes

Basic altitude profile: - Ascent Rate: 2500ft/min - Ascent Speed: 250kts - Cruise Altitude: 35000ft - Cruise Speed: 420kts - Descent Rate: 1500ft/min - Descent Speed: 250kts Options: - Use NATs: yes - Use PACOTS: yes - Use low airways: yes - Use high airways: yes

Route

EGKB SAM EGHH

ID Type Via Altitude Latitude Longitude Leg Dist Tot Dist Heading (true) Name
O EGKB APT - 0 ft / 0 m 51.32671˚ 0.03288˚ - 0 nm - Biggin Hill
SAM VOR - 4,600 ft / 1,402 m 50.95528˚ -1.34500˚ 56 nm 56 nm 247° / 246° SOUTHAMPTON VOR-DME
O EGHH APT - 0 ft / 0 m 50.78007˚ -1.84253˚ 21 nm 78 nm 241° / 241° Bournemouth

Altitude Profile

Advertisement - Login to hide

EGKB

Details ICAO EGKB (BQH)
Name Biggin Hill
Region United Kingdom
Timezone Europe/London (UTC+0.0)
Stats Elevation 598 ft / 182 m (AMSL)
Location 51.326710° 0.032876°
Runways 2
Magnetic Variation 0.373° W

METAR

EGKB 151020Z 31012KT 280V340 9999 BKN009 03/02 Q0996

Decode

TAF

Not found

Departure Runways

ID Width Length Bearing (true) Bearing (mag) Surface Threshold Offset Overrun Length
03 148 ft / 45 m 5,915 ft / 1,803 m 25.53° 25.90° Asphalt 804 ft / 245 m 0 ft / 0 m
11 59 ft / 18 m 2,579 ft / 786 m 105.47° 105.84° Asphalt 0 ft / 0 m 0 ft / 0 m
21 148 ft / 45 m 5,915 ft / 1,803 m 205.53° 205.90° Asphalt 0 ft / 0 m 0 ft / 0 m
29 59 ft / 18 m 2,579 ft / 786 m 285.48° 285.85° Asphalt 0 ft / 0 m 0 ft / 0 m

EGHH

Details ICAO EGHH (BOH)
Name Bournemouth
Region United Kingdom
Timezone Europe/London (UTC+0.0)
Stats Elevation 38 ft / 12 m (AMSL)
Location 50.780065° -1.842533°
Runways 1
Magnetic Variation 0.962° W

METAR

EGHH 151020Z 34017G27KT 290V360 9999 FEW020 05/02 Q0999

Decode

TAF

Not found

Destination Runways

ID Width Length Bearing (true) Bearing (mag) Surface Threshold Offset Overrun Length
08 151 ft / 46 m 7,440 ft / 2,268 m 75.27° 76.23° Asphalt 1,424 ft / 434 m 0 ft / 0 m
26 151 ft / 46 m 7,440 ft / 2,268 m 255.29° 256.25° Asphalt 0 ft / 0 m 328 ft / 100 m

Approach Navaids

Runway Type Ident Frequency Range Bearing (true) Bearing (mag) Slope Elevation
08 Localiser IBMH 110.50 MHz 18 nm / 33 km 75.09° 76.05° - 32 ft / 10 m (AMSL)
08 Glidescope IBMH 110.50 MHz 18 nm / 33 km 75.09° 76.05° 3.00° 30 ft / 9 m (AMSL)
08 DME IBMH 110.50 MHz 20 nm / 37 km - - - 31 ft / 9 m (AMSL)
26 Localiser IBH 110.50 MHz 18 nm / 33 km 255.41° 256.37° - 33 ft / 10 m (AMSL)
26 Glidescope IBH 110.50 MHz 18 nm / 33 km 255.41° 256.37° 3.00° 36 ft / 11 m (AMSL)
26 DME IBH 110.50 MHz 20 nm / 37 km - - - 31 ft / 9 m (AMSL)

Popular Alternatives